Regional Weather Roundup
Issued by NWS Newport/Morehead, NC

Current Version | Previous Version | Graphics & Text | Print | Product List | Glossary Off
Versions: 1 2 3 4 5 6 7 8 9 10 11 12 13 14 15 16 17 18 19 20 21 22 23 24 25 26 27 28 29 30 31 32 33 34 35 36 37 38 39 40 41 42 43 44 45 46 47 48 49 50

000
ASUS42 KMHX 280413
RWRMHX
WEATHER ROUNDUP FOR EASTERN NORTH CAROLINA
NATIONAL WEATHER SERVICE NEWPORT/MOREHEAD CITY NC
1200 AM EDT WED SEP 28 2016

NOTE: "FAIR" INDICATES FEW OR NO CLOUDS BELOW 12,000 FEET
WITH NO SIGNIFICANT WEATHER AND/OR OBSTRUCTIONS TO VISIBILITY

NCZ015>017-031-032-045>047-102-103-280500-
NORTH COAST

CITY           SKY/WX    TMP DP  RH WIND       PRES   REMARKS
EDENTON        FOG       70  70 100 CALM      29.93S VSB 3/4
ELIZABETH CITY PTCLDY    69  67  93 CALM      29.92S
KITTY HAWK     CLOUDY    73  73  98 CALM      29.91R
MANTEO         CLOUDY    73  71  95 E5        29.92R

$$

NCZ045>047-081-094-103-104-280500-
CENTRAL COAST

CITY           SKY/WX    TMP DP  RH WIND       PRES   REMARKS
FRISCO         CLEAR     73  71  93 N5        29.89S

$$

NCZ095-097-098-100-101-280500-
SOUTHERN COAST

CITY           SKY/WX    TMP DP  RH WIND       PRES   REMARKS
BEAUFORT       CLEAR     71  68  90 N5        29.90S
CEDAR ISLAND   NOT AVBL
JACKSONVILLE   PTCLDY    70  68  93 CALM      29.91R
PINEY ISLAND   CLEAR    N/A N/A N/A NW3       29.90R
WILMINGTON     PTCLDY    71  69  93 CALM      29.92R


$$

NCZ011>013-027>030-043-044-078>080-089-090>093-098-280500-
COASTAL PLAIN

CITY           SKY/WX    TMP DP  RH WIND       PRES   REMARKS
AHOSKIE        PTCLDY    67  67  98 CALM      29.92S
CLINTON        PTCLDY    69  69 100 CALM      29.93S FOG
ELIZABETHTOWN  PTCLDY    68  68 100 CALM      29.92F
GOLDSBORO      PTCLDY    70  70 100 S3        29.90S
GREENVILLE     MOCLDY    70  70 100 CALM      29.94F
HAVELOCK       PTCLDY    70  68  93 NW3       29.92R
KENANSVILLE    CLOUDY    68  68 100 CALM      29.92S FOG
KINSTON        PTCLDY    69  68  98 CALM      29.92F FOG
NEW BERN       PTCLDY    69  68  96 CALM      29.93R
RICHLANDS      PTCLDY    69  68  96 CALM      29.93R
ROCKY MOUNT    PTCLDY    69  69 100 CALM      29.91F FOG
WASHINGTON     PTCLDY    68  68  99 CALM      29.92F
WHITEVILLE     CLOUDY    70  68  94 CALM      29.92R

$$

AMZ130-135-150-152-154-156-158-170-250-252-270-ANZ085-086-088-633-658-670-280500-
MARINE OBSERVATIONS

STATION/POSITION TIME  TEMP    WIND        PRES    WAVE   SWELL
                       AIR SEA DIR/SP/G            HT/PER HT/PER
                 (UTC) (F)     (DEG/KT/KT) (MB)    (FT/S) (FT/S)
CHESAPEAKE LIGHT NOT AVBL
64 E VA BEACH    0350   74 74  130/  6/  8 1013.2    4/11   3/11
DUCK             0348   75 76  100/  8/ 10 1012.5
2 E DUCK         0341      76                N/A     3/11   2/11
OREGON INLET     0348   75 77   70/  6/ 10 1012.5
13E OREGON INLT  0400      76                N/A     4/ 7   3/ 7
HATTERAS CG      0348   75 77   20/  7/ 10 1011.9
DIAMOND BUOY     0350   77 84  360/ 12/ 16 1011.6    5/ 7   3/ 7
CAPE LOOKOUT     0400   75     360/  5/  5 1012.1
BEAUFORT LAB     0348   72 77   30/  3/  4 1011.8
30 SE NEW RVR IN 0308   79 83   30/  4/  8 1012.5
30 SE NEW RVR IN 0355      83                N/A     4/ 7   2/12
27 SE WRIGHTSVLE 0308   79 81   50/  6/  8 1012.8
5 SE WRIGHTSVLE  0308   79 81  100/  6/  8 1014.0
225 S CAPE HAT   0350   82 83  250/ 14/ 17 1012.8    5/12   3/12
41 SE CHARLESTON 0350   80 82   CALM  /  2 1012.5    2/11   2/11

$$



USA.gov is the U.S. government's official web portal to all federal, state and local government web resources and services.